Mexico City Airport, Mexico

2:42 PM CDT on June 27, 2017 (GMT -0500)
Lic Benito Juarez International

Weather History for MMMX - July, 2013

Change the Weather History Date:

Friday, July 12, 2013

  Actual Average Record
Temperature  
Mean Temperature 62 °F -  
Max Temperature 71 °F 73 °F 80 °F (1998)
Min Temperature 53 °F 53 °F 51 °F (1996)
Degree Days  
Heating Degree Days 3    
Growing Degree Days 12 (Base 50)    
Moisture  
Dew Point 51 °F    
Average Humidity 69    
Maximum Humidity 94    
Minimum Humidity 43    
Precipitation  
Precipitation 5.20 in - - ()
Sea Level Pressure  
Sea Level Pressure 30.17 in    
Wind  
Wind Speed 5 mph ()    
Max Wind Speed 17 mph    
Max Gust Speed -    
Visibility 6.3 miles    
Events Rain    
Averages and records for this station are not official NWS values.
T = Trace of Precipitation, MM = Missing Value Source: Averaged Metar Reports

Daily Weather History Graph

Daily Weather History Graph

Search for Another Location

Airport or City:

Trip Planner

Search our weather history database for the weather conditions in past years. The results will help you decide how hot, cold, wet, or windy it might be!

Date:

Astronomy

Jul. 12, 2013 Rise Set
Actual Time 7:05 AM CDT 8:18 PM CDT
Civil Twilight 6:41 AM CDT 8:42 PM CDT
Nautical Twilight 6:12 AM CDT 9:11 PM CDT
Astronomical Twilight 5:43 AM CDT 9:40 PM CDT
Moon 10:44 AM CDT (7/12) 11:13 PM CDT (7/12)
Length of Visible Light 14h 01m
Length of Day
13h 12m
Waxing Crescent, 17% of the Moon is Illuminated
Jul 12
Waxing Crescent
Jul 15
First Quarter
Jul 22
Full
Jul 29
Last Quarter
Aug 6
New

Hourly Weather History & Observations

Time (CDT) Temp. Dew Point Humidity Pressure Visibility Wind Dir Wind Speed Gust Speed Precip Events Conditions
12:45 AM 55.4 °F 53.6 °F 94% 29.89 in 3.0 mi SW 9.2 mph - N/A Rain Light Rain
1:22 AM 55.4 °F 51.8 °F 88% 30.33 in 6.0 mi SW 4.6 mph - N/A   Overcast
1:44 AM 55.4 °F 51.8 °F 88% 30.33 in 8.0 mi NNW 4.6 mph - N/A   Overcast
2:45 AM 53.6 °F 51.8 °F 94% 30.30 in 5.0 mi NE 6.9 mph - N/A   Mostly Cloudy
3:52 AM 55.4 °F 53.6 °F 94% 29.79 in 4.0 mi NE 3.5 mph - N/A   Overcast
4:48 AM 55.4 °F 51.8 °F 88% 30.30 in 4.0 mi Calm Calm - N/A   Overcast
5:50 AM 55.4 °F 51.8 °F 88% 30.30 in 4.0 mi SE 3.5 mph - N/A   Overcast
6:44 AM 55.4 °F 51.8 °F 88% 29.89 in 4.0 mi Calm Calm - N/A   Overcast
7:19 AM 55.4 °F 51.8 °F 88% 30.29 in 4.0 mi ENE 3.5 mph - N/A   Overcast
7:44 AM 57.2 °F 51.8 °F 82% 30.30 in 4.0 mi ENE 4.6 mph - N/A   Overcast
8:20 AM 57.2 °F 53.6 °F 88% 30.31 in 4.0 mi ENE 5.8 mph - N/A   Mostly Cloudy
8:44 AM 59.0 °F 53.6 °F 82% 30.30 in 4.0 mi NNE 5.8 mph - N/A   Scattered Clouds
9:20 AM 60.8 °F 51.8 °F 72% 30.30 in 4.0 mi Calm Calm - N/A   Mostly Cloudy
9:44 AM 62.6 °F 51.8 °F 68% 29.88 in 4.0 mi NE 3.5 mph - N/A   Mostly Cloudy
10:20 AM 64.4 °F 53.6 °F 68% 30.30 in 4.0 mi NNE 5.8 mph - N/A   Scattered Clouds
10:45 AM 64.4 °F 51.8 °F 64% 30.31 in 4.0 mi NNE 4.6 mph - N/A   Mostly Cloudy
11:43 AM 66.2 °F 51.8 °F 60% 30.30 in 5.0 mi NNE 5.8 mph - N/A   Mostly Cloudy
12:45 PM 68.0 °F 50.0 °F 52% 29.83 in 5.0 mi SE 4.6 mph - N/A   Mostly Cloudy
1:43 PM 71.6 °F 50.0 °F 46% 30.27 in 6.0 mi ENE 8.1 mph - N/A   Mostly Cloudy
1:46 PM 71.6 °F 48.2 °F 43% 30.27 in 6.0 mi East 6.9 mph - N/A   Mostly Cloudy
2:45 PM 71.6 °F 48.2 °F 43% 30.24 in 6.0 mi North 4.6 mph - N/A   Mostly Cloudy
3:50 PM 71.6 °F 50.0 °F 46% 29.74 in 7.0 mi South 11.5 mph - N/A   Mostly Cloudy
4:38 PM 68.0 °F 53.6 °F 60% 30.23 in 5.0 mi SSE 8.1 mph - N/A Rain Light Rain
4:45 PM 64.4 °F 51.8 °F 64% 30.22 in 5.0 mi SSE 8.1 mph - N/A Rain Rain
4:51 PM 64.4 °F 51.8 °F 64% 30.22 in 5.0 mi SSW 6.9 mph - N/A Rain Rain
5:07 PM 64.4 °F 53.6 °F 68% 30.21 in 7.0 mi South 8.1 mph - N/A Rain Light Rain
5:26 PM 66.2 °F 51.8 °F 60% - 7.0 mi South 9.2 mph - N/A   Mostly Cloudy
5:43 PM 66.2 °F 50.0 °F 56% 30.20 in 8.0 mi South 6.9 mph - N/A   Mostly Cloudy
6:03 PM 69.8 °F 50.0 °F 49% 30.21 in 8.0 mi WSW 5.8 mph - N/A   Mostly Cloudy
6:47 PM 68.0 °F 48.2 °F 49% 29.75 in 8.0 mi NW 5.8 mph - N/A   Overcast
7:32 PM 66.2 °F 50.0 °F 56% 30.23 in 10.0 mi North 17.3 mph - N/A   Overcast
7:50 PM 64.4 °F 50.0 °F 59% 30.24 in 10.0 mi NNE 17.3 mph - N/A   Overcast
8:46 PM 62.6 °F 50.0 °F 63% 30.27 in 12.0 mi North 5.8 mph - N/A   Mostly Cloudy
9:46 PM 62.6 °F 51.8 °F 68% 29.79 in 12.0 mi West 8.1 mph - N/A   Mostly Cloudy
10:43 PM 62.6 °F 51.8 °F 68% 30.30 in 12.0 mi West 8.1 mph - N/A   Mostly Cloudy
11:44 PM 62.6 °F 51.8 °F 68% 30.32 in 12.0 mi West 6.9 mph - N/A   Mostly Cloudy